Погода в Шарковщине

Погода в Шарковщине : погода сейчас, прогноз погоды и архив. Всё, что Вы хотите узнать о погоде в Шарковщине!

Хотите узнать прогноз погоды в Шарковщине? Тогда Вам сюда: Погода в Шарковщине

Поиск расширенной информации на нашем сайте:

Другие новости

Новости СМИ2

Главная страница сайта

Новости сайта

03.07.2017

Напоминаем, что на нашем специализированном сайте Метеоцентр.Азия вы можете получить высокодетализированные автоматические прогнозы погоды по пунктам России, СНГ и мира в авиационном формате (включающие направление и скорость ветра, видимость, явления погоды, количество и форму облачности, нижнюю и верхнюю границу облачности).


Погода в Шарковщине - сегодня

Время (UTC), дата Ветер
(°,м/с) 
Видим.   Явления Облачность Т
(°С)
Тd
(°С)
f(%) Тe
(°С)
Pmin
(гПа)
dP
(гПа)
Po
(мм)
O2
(г/м3)
Тmin Tmax R s Состояние
почвы
06 22.02.18 050 (СВ) 17000 м    4/0 
-16.3 -17.6 90 -16  1030.1  0.5  759  327  -17.1      18  равномерный
сухой снег
100% 
09 22.02.18 070 (В) 20000 м    ясно 
-12.9 -14.9 85 -13  1031.1  1.1  760  323           
12 22.02.18 060 (СВ) 22000 м    ясно 
-9.2 -12.6 76 -9  1030.7  -0.2  760  318           
15 22.02.18 040 (СВ) 20000 м    ясно 
-9.4 -12.9 76 -9  1029.7  -0.9  759  318           
21 22.02.18 тихо ()   17000 м    ясно 
-18.5 -19.7 90 -19  1030.8  760  330           
00 23.02.18 тихо ()   18000 м    ясно 
-23.2 -25 85 -23  1031.1  760  336           
03 23.02.18 тихо ()   16000 м    ясно 
-23.8 -25.6 85 -24  1030.4  -0.7  759  337        16   
09 23.02.18 тихо ()   18000 м    4/0 верхняя 
[Ci fib]
-16.3 -18.2 85 -16  1029.6  -0.1  759  327           
12 23.02.18 тихо ()   18000 м    ясно 
-11.1 -15.5 70 -11  1028.2  -1.1  758  320           
15 23.02.18 060 (СВ) 20000 м    ясно 
-9.9 -14.6 68 -10  1026.8  -1.3  757  318           
21 23.02.18 060 (СВ) 16000 м    ясно 
-17.4 -19.3 85 -18  1027.5  0.5  757  327           
00 24.02.18 тихо ()   14000 м    9/9 600 м 
[Sc]
-14.9 -16.9 85 -15  1027.8  0.5  758  324           
06 24.02.18 030 (СВ) 17000 м    5/0 средняя, верхняя 
[Ac trans|Ci fib]
-15.6 -16.9 90 -16  1029.5  1.3  759  326  -17.4      16  равномерный
сухой снег
100% 
09 24.02.18 050 (СВ) 18000 м    ясно 
-11.4 -15.8 70 -15  1030.4  1.1  760  321           
12 24.02.18 030 (СВ) 20000 м    3/3 600 м 
[Cu hum]
-9.4 -15.7 60 -11  1030.3  760  318           
15 24.02.18 020 (С) 20000 м    8/8 600 м 
[Sc]
-9.9 -14.6 68 -13  1030.3  760  319           
21 24.02.18 360 (С) 17000 м    9/9 600 м 
[Sc]
-13.3 -15.3 85 -15  1031.5  0.5  760  323           
00 25.02.18 350 (С) 16000 м    10/0 верхняя 
[Cc]
-17.6 -18.8 90 -18  1031.9  0.1  761  329           
03 25.02.18 360 (С) 17000 м    10/0 верхняя 
[Cc]
-19.5 -20.7 90 -20  1031.8  -0.3  760  332        16   
06 25.02.18 360 (С) 17000 м    8/0 верхняя 
[Cc]
-19.3 -20.5 90 -20  1031.9  0.1  760  331  -19.7      16  равномерный
сухой снег
100% 
09 25.02.18 340 (С) 20000 м    1/0 верхняя 
[Ci fib]
-16.3 -18.9 80 -19  1031.7  0.1  760  327           
12 25.02.18 050 (СВ) 20000 м    3/0 средняя, верхняя 
[Ac trans|Ci fib]
-13.1 -17.4 70 -15  1030.7  -0.8  760  323           
15 25.02.18 340 (С) 20000 м    8/3 600 м средняя, верхняя 
[Sc|Ac trans|Ci fib]
-13 -17.3 70 -15  1030.2  -0.5  759  323           
18 25.02.18 340 (С) 20000 м    8/0 средняя, верхняя 
[Ac trans|Ci fib]
-17.3 -19.9 80 -17  1030.7  0.2  760  328    -12.3    15   
21 25.02.18 300 (СЗ) 16000 м    10/0 средняя, верхняя 
[Ac trans|Ci fib]
-20 -21.9 85 -20  1030.9  760  332           
Время (UTC), дата Ветер
(°,м/с) 
Видим.   Явления Облачность Т
(°С)
Тd
(°С)
f(%) Тe
(°С)
Pmin
(гПа)
dP
(гПа)
Po
(мм)
O2
(г/м3)
Тmin Tmax R s Состояние
почвы

Для получения пояснительной информации подведите курсор к названию столбца.

ПОГОДА в Шарковщине - архив

Всё, что Вы хотите узнать о погоде в Шарковщине - удобно и подробно!

Выберите нужную дату (начиная с 1 января 2015* года) и нажмите кнопку "Найти".
Будут отображены архивные сводки погоды по пункту Шарковщина, начиная с указанной даты.


Отображать данные в формате CSV (для использования в таблицах Excel)


Внимание! Наш архив погоды предназначен исключительно для личного некоммерческого использования в познавательных целях. Если Вам необходимы официальные справки о состоянии погоды (для производственных, юридических, коммерческих и т.п. целей), обращайтесь в органы Росгидромета.

*Примечание: данная дата относится к архиву по метеостанциям СССР (Россия, СНГ, Балтия).
Архив по метеостанциям Зарубежной Европы и Азии (кроме Китая) хранится 10 дней, по другим регионам земного шара (Китай, Африка, Америка, Австралия, Океания) - 1 день.

Шарковщина - район местоположения метеостанции


Название, широта, долгота, высота метеостанции:
Шарковщина 55.4°ш. 27.5°д. 131 м над ур. моря [Беларусь]

Дополнительная информация

В oтличие oт бoльшинства пoгoдных сайтoв мы публикуем пoдрoбную метеoинфoрмацию в детальнoм прoфессиoнальнoм фoрмате.

Характеристики температуры и влажнoсти вoздуха измеряются на высoте 2 м в тени вдали oт зданий и деревьев.
Скoрoсть ветра измеряется на высoте 10 м (на урoвне рoста челoвека скoрoсть ветра ниже в 1.5-2 раза). Если метеoстанция нахoдится в гoрoде или в лесу, тo скoрoсть ветра занижена на 2-4 м/с пo сравнению с oткрытым местoм. Скoрoсть ветра над акватoриями крупных рек и oзёр, а также на вершинах хoлмoв на 2-5 м/с выше, чем в oбычных услoвиях.
Атмoсфернoе давление в разных тoчках местнoсти мoжет значительнo oтличаться oт давления на метеoстанции, в зависимoсти oт услoвий рельефа (при пoдъёме на 10 м давление пoнижается примернo на 1 мм рт.ст.).